Terminal Aerodrome Forecast
Issued by NWS

Home | Current Version | Previous Version | Text Only | Print | Product List | Glossary On
Versions: 1 2 3 4 5 6 7 8 9 10 11 12 13
000
FTUS42 KMLB 290500 RRA
TAFFPR
TAF
KFPR 290542Z 2906/3006 24005KT P6SM SCT250
     FM291400 25008KT P6SM SCT035 BKN250
     FM291800 25009KT P6SM VCTS SCT040CB BKN250
     FM300200 24006KT P6SM BKN040 BKN250=

USA.gov is the U.S. government's official web portal to all federal, state and local government web resources and services.